Change the Weather History Date:

Saturday, August 24, 2013

  Actual Average (KFLG) Record (KFLG)
Temperature  
Mean Temperature 62 °F 63 °F  
Max Temperature 71 °F 78 °F 91 °F (1985)
Min Temperature 53 °F 49 °F 30 °F (1968)
Degree Days  
Heating Degree Days 3 2  
Month to date heating degree days 35  
Since 1 July heating degree days 67  
Cooling Degree Days 0 1  
Month to date cooling degree days 31  
Year to date cooling degree days 112  
Growing Degree Days 12 (Base 50)    
Moisture  
Dew Point 51 °F    
Average Humidity 74    
Maximum Humidity 94    
Minimum Humidity 43    
Precipitation  
Precipitation 0.18 in 0.10 in 1.13 in (2005)
Month to date precipitation 2.47  
Year to date precipitation 13.55  
Snow  
Snow 0.00 in 0.00 in 0.00 in (2002)
Month to date snowfall 0.0  
Since 1 July snowfall 0.0  
Snow Depth -    
Sea Level Pressure  
Sea Level Pressure 30.32 in    
Wind  
Wind Speed 8 mph (SSE)    
Max Wind Speed 14 mph    
Max Gust Speed 20 mph    
Visibility 10 miles    
Events      
T = Trace of Precipitation, MM = Missing Value Source: NWS Daily Summary

Daily Weather History Graph

Daily Weather History Graph

Search for Another Location

Airport or City:

Trip Planner

Search our weather history database for the weather conditions in past years. The results will help you decide how hot, cold, wet, or windy it might be!

Date:

Astronomy

Aug. 24, 2013 Rise Set
Actual Time 5:55 AM MST 7:06 PM MST
Civil Twilight 5:29 AM MST 7:32 PM MST
Nautical Twilight 4:57 AM MST 8:03 PM MST
Astronomical Twilight 4:25 AM MST 8:36 PM MST
Moon 9:14 PM MST (8/24) 9:47 AM MST (8/24)
Length of Visible Light 14h 03m
Length of Day
13h 10m
Waning Gibbous, 83% of the Moon is Illuminated
Aug 24
Waning Gibbous
Aug 28
Last Quarter
Sep 5
New
Sep 12
First Quarter
Sep 19
Full

Hourly Weather History & Observations

Time (MST) Temp. Dew Point Humidity Pressure Visibility Wind Dir Wind Speed Gust Speed Precip Events Conditions
12:15 AM 57.2 °F 46.4 °F 67% 30.28 in 10.0 mi SSE 8.1 mph - N/A   Clear
12:35 AM 57.2 °F 46.4 °F 67% 30.28 in 10.0 mi SSE 8.1 mph - N/A   Clear
12:55 AM 57.2 °F 46.4 °F 67% 30.28 in 10.0 mi SSE 9.2 mph - N/A   Clear
1:15 AM 55.4 °F 48.2 °F 77% 30.28 in 10.0 mi SSE 9.2 mph - N/A   Clear
1:35 AM 55.4 °F 46.4 °F 72% 30.28 in 10.0 mi SSE 8.1 mph - N/A   Clear
1:55 AM 55.4 °F 46.4 °F 72% 30.28 in 10.0 mi SSE 9.2 mph - N/A   Clear
2:15 AM 55.4 °F 46.4 °F 72% 30.29 in 10.0 mi SSE 8.1 mph - N/A   Scattered Clouds
2:35 AM 55.4 °F 48.2 °F 77% 30.29 in 10.0 mi SSE 9.2 mph - N/A   Mostly Cloudy
2:55 AM 55.4 °F 46.4 °F 72% 30.29 in 10.0 mi SSE 6.9 mph - N/A   Partly Cloudy
3:15 AM 55.4 °F 46.4 °F 72% 30.29 in 10.0 mi South 5.8 mph - N/A   Clear
3:35 AM 53.6 °F 48.2 °F 82% 30.29 in 10.0 mi SSE 8.1 mph - N/A   Scattered Clouds
3:55 AM 57.2 °F 46.4 °F 67% 30.29 in 10.0 mi SSE 6.9 mph - N/A   Mostly Cloudy
4:15 AM 57.2 °F 46.4 °F 67% 30.29 in 10.0 mi SE 8.1 mph - N/A   Mostly Cloudy
4:35 AM 57.2 °F 46.4 °F 67% 30.29 in 10.0 mi SE 8.1 mph - N/A   Mostly Cloudy
4:55 AM 57.2 °F 46.4 °F 67% 30.29 in 10.0 mi SE 10.4 mph - N/A   Partly Cloudy
5:15 AM 59.0 °F 48.2 °F 67% 30.30 in 10.0 mi SSE 10.4 mph - N/A   Clear
5:35 AM 59.0 °F 48.2 °F 67% 30.30 in 10.0 mi SSE 13.8 mph - N/A   Partly Cloudy
5:55 AM 57.2 °F 48.2 °F 72% 30.30 in 10.0 mi SE 13.8 mph - N/A   Clear
6:15 AM 59.0 °F 50.0 °F 72% 30.30 in 10.0 mi SSE 12.7 mph - N/A   Clear
6:35 AM 59.0 °F 50.0 °F 72% 30.31 in 10.0 mi SSE 10.4 mph - N/A   Clear
6:55 AM 59.0 °F 50.0 °F 72% 30.31 in 10.0 mi SE 10.4 mph - N/A   Clear
7:15 AM 59.0 °F 50.0 °F 72% 30.31 in 10.0 mi SE 12.7 mph - N/A   Partly Cloudy
7:35 AM 59.0 °F 50.0 °F 72% 30.32 in 10.0 mi SE 10.4 mph - N/A   Overcast
7:55 AM 59.0 °F 50.0 °F 72% 30.31 in 10.0 mi SE 12.7 mph - N/A   Mostly Cloudy
8:15 AM 59.0 °F 50.0 °F 72% 30.32 in 10.0 mi SE 13.8 mph - N/A   Mostly Cloudy
8:35 AM 59.0 °F 51.8 °F 77% 30.32 in 10.0 mi SE 12.7 mph 19.6 mph N/A   Scattered Clouds
8:55 AM 59.0 °F 51.8 °F 77% 30.33 in 10.0 mi SSE 9.2 mph - N/A   Clear
9:15 AM 60.8 °F 51.8 °F 72% 30.34 in 10.0 mi SE 9.2 mph - N/A   Clear
9:35 AM 59.0 °F 51.8 °F 77% 30.37 in 10.0 mi SE 8.1 mph - N/A   Mostly Cloudy
9:55 AM 59.0 °F 51.8 °F 77% 30.37 in 10.0 mi ESE 10.4 mph 18.4 mph N/A   Overcast
10:15 AM 59.0 °F 53.6 °F 82% 30.37 in 10.0 mi SE 10.4 mph - N/A   Mostly Cloudy
10:35 AM 59.0 °F 53.6 °F 82% 30.38 in 10.0 mi SSE 13.8 mph - N/A   Mostly Cloudy
10:55 AM 57.2 °F 55.4 °F 94% 30.39 in 3.0 mi South 8.1 mph - 0.02 in   Overcast
11:15 AM 57.2 °F 53.6 °F 88% 30.39 in 5.0 mi SSW 4.6 mph - 0.01 in   Mostly Cloudy
11:35 AM 57.2 °F 53.6 °F 88% 30.40 in 2.5 mi SSW 5.8 mph - 0.14 in   Overcast
11:55 AM 57.2 °F 55.4 °F 94% 30.40 in 10.0 mi SSW 8.1 mph - 0.14 in   Overcast
12:15 PM 57.2 °F 55.4 °F 94% 30.39 in 10.0 mi SW 6.9 mph - N/A   Overcast
12:35 PM 57.2 °F 55.4 °F 94% 30.39 in 7.0 mi SSW 6.9 mph - N/A   Overcast
12:55 PM 57.2 °F 55.4 °F 94% 30.38 in 4.0 mi SSW 10.4 mph - 0.01 in   Mostly Cloudy
1:15 PM 59.0 °F 55.4 °F 88% 30.37 in 10.0 mi South 9.2 mph - N/A   Mostly Cloudy
1:35 PM 59.0 °F 55.4 °F 88% 30.36 in 10.0 mi South 9.2 mph - N/A   Mostly Cloudy
1:55 PM 59.0 °F 55.4 °F 88% 30.35 in 10.0 mi SE 6.9 mph - N/A   Mostly Cloudy
2:15 PM 60.8 °F 55.4 °F 82% 30.34 in 10.0 mi ESE 6.9 mph - 0.01 in   Overcast
2:35 PM 62.6 °F 53.6 °F 72% 30.32 in 10.0 mi ESE 8.1 mph - 0.01 in   Mostly Cloudy
2:55 PM 62.6 °F 53.6 °F 72% 30.30 in 10.0 mi ESE 10.4 mph - 0.01 in   Partly Cloudy
3:15 PM 64.4 °F 53.6 °F 68% 30.29 in 10.0 mi East 10.4 mph - N/A   Partly Cloudy
3:35 PM 68.0 °F 50.0 °F 52% 30.28 in 10.0 mi ENE 9.2 mph - N/A   Partly Cloudy
3:55 PM 68.0 °F 50.0 °F 52% 30.28 in 10.0 mi East 5.8 mph - N/A   Clear
4:15 PM 69.8 °F 48.2 °F 46% 30.29 in 10.0 mi ESE 8.1 mph - N/A   Clear
4:35 PM 71.6 °F 48.2 °F 43% 30.27 in 10.0 mi SE 8.1 mph - N/A   Clear
4:55 PM 69.8 °F 48.2 °F 46% 30.27 in 10.0 mi SSE 6.9 mph - N/A   Clear
5:15 PM 69.8 °F 48.2 °F 46% 30.27 in 10.0 mi SSE 8.1 mph - N/A   Clear
5:35 PM 69.8 °F 48.2 °F 46% 30.28 in 10.0 mi South 8.1 mph - N/A   Clear
5:55 PM 68.0 °F 48.2 °F 49% 30.29 in 10.0 mi South 8.1 mph - N/A   Clear
6:15 PM 66.2 °F 50.0 °F 56% 30.29 in 10.0 mi SW 5.8 mph - N/A   Clear
6:35 PM 66.2 °F 53.6 °F 64% 30.30 in 10.0 mi SW 4.6 mph - N/A   Clear
6:55 PM 64.4 °F 55.4 °F 73% 30.30 in 10.0 mi SW 4.6 mph - N/A   Clear
7:15 PM 62.6 °F 55.4 °F 77% 30.31 in 10.0 mi SW 4.6 mph - N/A   Clear
7:35 PM 62.6 °F 55.4 °F 77% 30.33 in 10.0 mi SW 3.5 mph - N/A   Clear
7:55 PM 60.8 °F 55.4 °F 82% 30.33 in 10.0 mi Calm Calm - N/A   Clear
8:15 PM 60.8 °F 55.4 °F 82% 30.33 in 10.0 mi East 3.5 mph - N/A   Clear
8:35 PM 59.0 °F 53.6 °F 82% 30.33 in 10.0 mi East 3.5 mph - N/A   Clear
8:55 PM 59.0 °F 53.6 °F 82% 30.34 in 10.0 mi Calm Calm - N/A   Clear
9:15 PM 57.2 °F 53.6 °F 88% 30.34 in 10.0 mi SE 3.5 mph - N/A   Clear
9:35 PM 57.2 °F 53.6 °F 88% 30.35 in 10.0 mi SSE 5.8 mph - N/A   Clear
9:55 PM 57.2 °F 53.6 °F 88% 30.35 in 10.0 mi SSE 6.9 mph - N/A   Clear
10:15 PM 57.2 °F 53.6 °F 88% 30.34 in 10.0 mi SSE 5.8 mph - N/A   Clear
10:35 PM 57.2 °F 51.8 °F 82% 30.34 in 10.0 mi SSE 5.8 mph - N/A   Clear
10:55 PM 57.2 °F 51.8 °F 82% 30.34 in 10.0 mi SSE 4.6 mph - N/A   Clear
11:15 PM 57.2 °F 51.8 °F 82% 30.34 in 10.0 mi South 3.5 mph - N/A   Clear
11:35 PM 55.4 °F 51.8 °F 88% 30.34 in 10.0 mi SSE 4.6 mph - N/A   Clear
11:55 PM 57.2 °F 51.8 °F 82% 30.35 in 10.0 mi SSE 3.5 mph - N/A   Clear